When you browse on this site, cookies collect data to enhance your experience and personalize the content and advertising you see.
Visit our Privacy Policy to learn more. By continuing to use the site, you agree to this use of cookies and data.
  • In Sweden
  • List of Countries
  • For 7 days
  • Water Temperature
  • Weather Map
  • Weather Widgets
  • user-avatar
    Login

    Hourly Weather Jerusalem

    Today, 27 May, Wednesday

    Time Temperature Precipitation Wind Pressure Humidity
    00:00 +19°C° 0 mm 1 mps 693 mmHg 45%
    01:00 +18°C° 0 mm 1 mps 693 mmHg 47%
    02:00 +18°C° 0 mm 1 mps 692 mmHg 48%
    03:00 +16°C° 0 mm 1 mps 692 mmHg 53%
    04:00 +16°C° 0 mm 1 mps 692 mmHg 58%
    05:00 +15°C° 0 mm 1 mps 693 mmHg 63%
    06:00 +18°C° 0 mm 1 mps 693 mmHg 56%
    07:00 +19°C° 0 mm 2 mps 693 mmHg 49%
    08:00 +21°C° 0 mm 2 mps 694 mmHg 42%
    09:00 +24°C° 0 mm 2 mps 694 mmHg 38%
    10:00 +25°C° 0 mm 3 mps 694 mmHg 35%
    11:00 +27°C° 0 mm 3 mps 695 mmHg 31%
    12:00 +27°C° 0 mm 4 mps 694 mmHg 32%
    13:00 +26°C° 0 mm 5 mps 694 mmHg 34%
    14:00 +26°C° 0 mm 6 mps 694 mmHg 35%
    15:00 +24°C° 0 mm 6 mps 694 mmHg 37%
    16:00 +23°C° 0 mm 7 mps 694 mmHg 39%
    17:00 +22°C° 0 mm 7 mps 694 mmHg 42%
    18:00 +21°C° 0 mm 6 mps 694 mmHg 49%
    19:00 +19°C° 0 mm 5 mps 694 mmHg 57%
    20:00 +17°C° 0 mm 4 mps 694 mmHg 65%
    21:00 +17°C° 0 mm 3 mps 694 mmHg 68%
    22:00 +16°C° 0 mm 3 mps 694 mmHg 72%
    23:00 +16°C° 0 mm 2 mps 694 mmHg 76%

    Tomorrow, 28 May, Thursday

    Time Temperature Precipitation Wind Pressure Humidity
    00:00 +15°C° 0 mm 2 mps 694 mmHg 78%
    01:00 +15°C° 0 mm 2 mps 693 mmHg 81%
    02:00 +15°C° 0 mm 2 mps 693 mmHg 84%
    03:00 +15°C° 0 mm 2 mps 694 mmHg 82%
    04:00 +15°C° 0 mm 2 mps 694 mmHg 81%
    05:00 +15°C° 0 mm 2 mps 694 mmHg 80%
    06:00 +16°C° 0 mm 3 mps 694 mmHg 73%
    07:00 +17°C° 0 mm 3 mps 695 mmHg 67%
    08:00 +18°C° 0 mm 3 mps 695 mmHg 61%
    09:00 +20°C° 0 mm 4 mps 695 mmHg 54%
    10:00 +21°C° 0 mm 4 mps 695 mmHg 47%
    11:00 +22°C° 0 mm 5 mps 695 mmHg 39%
    12:00 +23°C° 0 mm 5 mps 695 mmHg 37%
    13:00 +23°C° 0 mm 6 mps 695 mmHg 34%
    14:00 +24°C° 0 mm 6 mps 695 mmHg 32%
    15:00 +23°C° 0 mm 7 mps 694 mmHg 36%
    16:00 +21°C° 0 mm 7 mps 694 mmHg 40%
    17:00 +20°C° 0 mm 7 mps 694 mmHg 44%
    18:00 +19°C° 0 mm 6 mps 694 mmHg 52%
    19:00 +17°C° 0 mm 5 mps 694 mmHg 59%
    20:00 +15°C° 0 mm 4 mps 694 mmHg 67%
    21:00 +15°C° 0 mm 4 mps 695 mmHg 70%
    22:00 +14°C° 0 mm 4 mps 695 mmHg 73%
    23:00 +14°C° 0 mm 3 mps 695 mmHg 76%

    Day after tomorrow, 29 May, Friday

    Time Temperature Precipitation Wind Pressure Humidity
    00:00 +14°C° 0 mm 3 mps 694 mmHg 76%
    01:00 +14°C° 0 mm 3 mps 694 mmHg 77%
    02:00 +13°C° 0 mm 3 mps 694 mmHg 77%
    03:00 +13°C° 0 mm 3 mps 694 mmHg 77%
    04:00 +13°C° 0 mm 3 mps 694 mmHg 77%
    05:00 +14°C° 0 mm 2 mps 694 mmHg 76%
    06:00 +14°C° 0 mm 3 mps 695 mmHg 69%
    07:00 +16°C° 0 mm 3 mps 695 mmHg 62%
    08:00 +17°C° 0 mm 4 mps 695 mmHg 55%
    09:00 +18°C° 0 mm 4 mps 696 mmHg 49%
    10:00 +20°C° 0 mm 4 mps 696 mmHg 43%
    11:00 +21°C° 0 mm 5 mps 696 mmHg 38%
    12:00 +21°C° 0 mm 5 mps 696 mmHg 36%
    13:00 +22°C° 0 mm 6 mps 696 mmHg 35%
    14:00 +22°C° 0 mm 6 mps 696 mmHg 33%
    15:00 +21°C° 0 mm 7 mps 696 mmHg 39%
    16:00 +20°C° 0 mm 7 mps 695 mmHg 44%
    17:00 +18°C° 0 mm 7 mps 695 mmHg 49%
    18:00 +17°C° 0 mm 6 mps 695 mmHg 56%
    19:00 +15°C° 0 mm 5 mps 695 mmHg 63%
    20:00 +14°C° 0 mm 4 mps 695 mmHg 70%
    21:00 +14°C° 0 mm 3 mps 695 mmHg 73%
    22:00 +14°C° 0 mm 2 mps 695 mmHg 76%
    23:00 +14°C° 0 mm 2 mps 695 mmHg 78%

    30 May, Saturday

    Time Temperature Precipitation Wind Pressure Humidity
    00:00 +13°C° 0 mm 2 mps 695 mmHg 80%
    01:00 +13°C° 0 mm 2 mps 694 mmHg 81%
    02:00 +13°C° 0 mm 1 mps 694 mmHg 83%
    03:00 +13°C° 0 mm 1 mps 694 mmHg 83%
    04:00 +12°C° 0 mm 1 mps 694 mmHg 83%
    05:00 +12°C° 0 mm 1 mps 694 mmHg 84%
    06:00 +14°C° 0 mm 1 mps 695 mmHg 73%
    07:00 +16°C° 0 mm 1 mps 695 mmHg 62%
    08:00 +18°C° 0 mm 1 mps 696 mmHg 50%
    09:00 +19°C° 0 mm 2 mps 696 mmHg 43%
    10:00 +21°C° 0 mm 2 mps 696 mmHg 36%
    11:00 +24°C° 0 mm 3 mps 696 mmHg 28%
    12:00 +24°C° 0 mm 3 mps 696 mmHg 29%
    13:00 +23°C° 0 mm 4 mps 696 mmHg 30%
    14:00 +25°C° 0 mm 4 mps 695 mmHg 30%
    15:00 +23°C° 0 mm 5 mps 695 mmHg 35%
    16:00 +22°C° 0 mm 6 mps 695 mmHg 40%
    17:00 +20°C° 0 mm 7 mps 695 mmHg 45%
    18:00 +19°C° 0 mm 6 mps 695 mmHg 50%
    19:00 +17°C° 0 mm 5 mps 695 mmHg 56%
    20:00 +15°C° 0 mm 4 mps 694 mmHg 61%
    21:00 +16°C° 0 mm 3 mps 694 mmHg 63%
    22:00 +14°C° 0 mm 3 mps 695 mmHg 64%
    23:00 +15°C° 0 mm 2 mps 695 mmHg 65%

    31 May, Sunday

    Time Temperature Precipitation Wind Pressure Humidity
    00:00 +14°C° 0 mm 2 mps 694 mmHg 67%
    01:00 +14°C° 0 mm 2 mps 694 mmHg 68%
    02:00 +13°C° 0 mm 2 mps 694 mmHg 69%
    03:00 +13°C° 0 mm 2 mps 694 mmHg 71%
    04:00 +13°C° 0 mm 2 mps 694 mmHg 72%
    05:00 +13°C° 0 mm 2 mps 694 mmHg 74%
    06:00 +14°C° 0 mm 2 mps 694 mmHg 63%
    07:00 +16°C° 0 mm 2 mps 695 mmHg 52%
    08:00 +18°C° 0 mm 2 mps 695 mmHg 42%
    09:00 +20°C° 0 mm 2 mps 695 mmHg 36%
    10:00 +23°C° 0 mm 2 mps 695 mmHg 31%
    11:00 +25°C° 0 mm 3 mps 695 mmHg 25%
    12:00 +25°C° 0 mm 3 mps 695 mmHg 28%
    13:00 +25°C° 0 mm 4 mps 695 mmHg 30%
    14:00 +26°C° 0 mm 5 mps 694 mmHg 33%
    15:00 +25°C° 0 mm 5 mps 694 mmHg 37%
    16:00 +23°C° 0 mm 5 mps 694 mmHg 42%
    17:00 +21°C° 0 mm 6 mps 693 mmHg 46%
    18:00 +20°C° 0 mm 5 mps 693 mmHg 53%
    19:00 +18°C° 0 mm 4 mps 693 mmHg 59%
    20:00 +17°C° 0 mm 4 mps 693 mmHg 66%
    21:00 +16°C° 0 mm 3 mps 693 mmHg 66%
    22:00 +16°C° 0 mm 3 mps 693 mmHg 66%
    23:00 +14°C° 0 mm 3 mps 693 mmHg 66%

    1 June, Monday

    Time Temperature Precipitation Wind Pressure Humidity
    00:00 +15°C° 0 mm 2 mps 693 mmHg 69%
    01:00 +14°C° 0 mm 2 mps 693 mmHg 73%
    02:00 +14°C° 0 mm 2 mps 692 mmHg 76%
    03:00 +14°C° 0 mm 1 mps 692 mmHg 75%
    04:00 +13°C° 0 mm 1 mps 692 mmHg 74%
    05:00 +12°C° 0 mm 0 mps 692 mmHg 74%
    06:00 +15°C° 0 mm 1 mps 693 mmHg 62%
    07:00 +19°C° 0 mm 1 mps 693 mmHg 50%
    08:00 +21°C° 0 mm 1 mps 693 mmHg 38%
    09:00 +23°C° 0 mm 2 mps 694 mmHg 33%
    10:00 +24°C° 0 mm 2 mps 694 mmHg 29%
    11:00 +26°C° 0 mm 3 mps 694 mmHg 24%
    12:00 +27°C° 0 mm 4 mps 694 mmHg 25%
    13:00 +27°C° 0 mm 4 mps 694 mmHg 26%
    14:00 +28°C° 0 mm 5 mps 693 mmHg 27%
    15:00 +27°C° 0 mm 5 mps 693 mmHg 28%
    16:00 +26°C° 0 mm 5 mps 693 mmHg 28%
    17:00 +26°C° 0 mm 5 mps 693 mmHg 28%
    18:00 +23°C° 0 mm 4 mps 693 mmHg 31%
    19:00 +22°C° 0 mm 3 mps 693 mmHg 35%
    20:00 +20°C° 0 mm 2 mps 693 mmHg 38%
    21:00 +20°C° 0 mm 2 mps 692 mmHg 35%
    22:00 +20°C° 0 mm 2 mps 692 mmHg 32%
    23:00 +20°C° 0 mm 2 mps 692 mmHg 30%
    Show more